This is the latest recevied weather packets stored in our database for station/object N7SWJ. If no packets are shown the sender has not sent any weather packets the latest 1 day(s).
| Time | Temp. | Humidity | Pressure | Rain* | Wind** | Luminosity | Snow |
|---|---|---|---|---|---|---|---|
| 1778007407 | 3.89° C | 91% | 1016.3 hPa | 3.05 mm | 0.89 m/s, 39° | 103 W/m² | - |
| 1778007103 | 3.89° C | 90% | 1016.5 hPa | 1.78 mm | 0 m/s | 113 W/m² | - |
| 1778006800 | 4.44° C | 90% | 1016.3 hPa | 0 mm | 0 m/s | 107 W/m² | - |
| 1778006497 | 4.44° C | 90% | 1016.3 hPa | 0 mm | 0 m/s | 116 W/m² | - |
| 1778006194 | 4.44° C | 88% | 1016.6 hPa | 0 mm | 0 m/s | 126 W/m² | - |
| 1778005892 | 4.44° C | 88% | 1016.5 hPa | 1.78 mm | 0 m/s | 131 W/m² | - |
| 1778005587 | 4.44° C | 89% | 1016.6 hPa | 1.78 mm | 0 m/s | 118 W/m² | - |
| 1778005284 | 4.44° C | 90% | 1016.6 hPa | 1.78 mm | 0 m/s | 118 W/m² | - |
| 1778004981 | 4.44° C | 89% | 1016.7 hPa | 0 mm | 0 m/s | 148 W/m² | - |
| 1778004678 | 4.44° C | 90% | 1016.6 hPa | 0 mm | 0 m/s | 201 W/m² | - |
| 1778004374 | 3.89° C | 89% | 1016.7 hPa | 0 mm | 0 m/s | 220 W/m² | - |
| 1778004072 | 4.44° C | 91% | 1016.7 hPa | 0 mm | 0 m/s | 150 W/m² | - |
| 1778003768 | 4.44° C | 90% | 1016.7 hPa | 0 mm | 0.45 m/s, 89° | 190 W/m² | - |
| 1778003464 | 3.89° C | 91% | 1016.7 hPa | 1.27 mm | 0 m/s | 207 W/m² | - |
| 1778003161 | 3.33° C | 90% | 1017 hPa | 1.27 mm | 0 m/s | 139 W/m² | - |
| 1778002856 | 3.89° C | 92% | 1017.5 hPa | 0 mm | 0 m/s | 105 W/m² | - |
| 1778002554 | 3.33° C | 92% | 1017.3 hPa | 0 mm | 0 m/s | 87 W/m² | - |
| 1778002250 | 3.89° C | 92% | 1016.9 hPa | 0 mm | 0 m/s | 117 W/m² | - |
| 1778001948 | 3.33° C | 93% | 1017.3 hPa | 0 mm | 0 m/s | 162 W/m² | - |
| 1778001644 | 3.89° C | 93% | 1017.1 hPa | 0 mm | 0 m/s | 157 W/m² | - |
| 1778001339 | 3.33° C | 94% | 1017.1 hPa | 0 mm | 0 m/s | 124 W/m² | - |
| 1778001037 | 3.33° C | 94% | 1017.1 hPa | 0 mm | 0 m/s | 115 W/m² | - |
| 1778000733 | 3.33° C | 94% | 1017 hPa | 0 mm | 0 m/s | 130 W/m² | - |
| 1778000429 | 3.89° C | 94% | 1016.9 hPa | 0 mm | 0 m/s | 171 W/m² | - |
| 1778000125 | 3.33° C | 94% | 1017.1 hPa | 0 mm | 0 m/s | 193 W/m² | - |
* Rain latest hour (hover to see other rain measurements)
** Current wind speed in m/s (hover to see current wind gust speed)